Simultaneous Nadir Overpasses (SNOs) Predictions

Prediction of SNOs between FY3D and AQUA Satellite Orbit:

Table of predicted SNOs for the next 14.0 days since TLE Epoch: 1/9/2021
Index Date (FY3D) Time (FY3D) Lat,Lon (FY3D) SZA (FY3D ) Date (AQUA) Time (AQUA) Lat,Lon (AQUA) SZA (AQUA ) Distance(km) Time Diff (sec)
1 01/10/2021 21:44:54 -46.25,-113.56 34.79 01/10/2021 21:44:58 -46.30,-113.74 34.72 15.08 4
2 01/10/2021 22:34:18 50.75, 55.69 141.75 01/10/2021 22:33:06 50.75, 55.70 141.89 0.92 72
3 01/13/2021 14:01:07 -46.71, 2.55 35.35 01/13/2021 14:01:19 -46.75, 2.31 35.26 18.99 12
4 01/13/2021 14:51:02 49.42, 171.02 142.56 01/13/2021 14:49:57 49.42, 171.02 142.70 0.24 65
5 01/16/2021 06:17:21 -47.11, 118.64 35.92 01/16/2021 06:17:40 -47.19, 118.36 35.86 23.06 19
6 01/16/2021 07:07:44 48.20, -73.58 143.23 01/16/2021 07:06:46 48.20, -73.59 143.37 0.77 58
7 01/18/2021 22:33:34 -47.56,-125.24 36.60 01/18/2021 22:34:01 -47.63,-125.58 36.52 26.59 27
8 01/18/2021 23:24:26 46.98, 41.84 143.86 01/18/2021 23:23:35 46.97, 41.82 143.99 2.04 51
9 01/21/2021 14:49:46 -48.01, -9.13 37.34 01/21/2021 14:50:21 -48.06, -9.53 37.23 30.43 35



Historial Predications of SNOs between FY3D and AQUA
